Location: Courçay
(47.2523°N, 0.8761°E)
Time: 21:50:19
(UTC+00:00)

SJ-12 - Pass Details

Date: 18 November 2025
Orbit: 517 x 528 km, 97.8° (Epoch: 10 December)

Event Time Altitude Azimuth Distance (km) Brightness Sun altitude
Rises 17:03:58 0° 151° (SSE) 2,643 7.2 -8.0°
Reaches altitude 10° 17:06:06 10° 146° (SE) 1,757 6.2 -8.3°
Maximum altitude 17:09:45 47° 72° (ENE) 697 3.9 -8.9°
Drops below altitude 10° 17:13:24 10° 358° (N) 1,764 6.2 -9.5°
Sets 17:15:33 0° 352° (N) 2,656 7.2 -9.8°
